Time,TemperatureF,DewpointF,PressureIn,WindDirection,WindDirectionDegrees,WindSpeedMPH,WindSpeedGustMPH,Humidity,HourlyPrecipIn,Conditions,Clouds,dailyrainin,SoftwareType,DateUTC
2013-08-05 00:01:00,56.2,51.0,30.00,North,0,0.0,0.4,83,0.00,,,0.00,WUHU216HW,2013-08-05 07:01:00,
2013-08-05 00:05:00,56.0,50.9,30.01,East,90,0.2,0.2,83,0.00,,,0.00,WUHU216HW,2013-08-05 07:05:00,
2013-08-05 00:11:00,55.8,50.7,30.01,NW,315,0.0,0.7,83,0.00,,,0.00,WUHU216HW,2013-08-05 07:11:00,
2013-08-05 00:16:00,55.8,50.7,30.01,NW,315,0.0,0.7,83,0.00,,,0.00,WUHU216HW,2013-08-05 07:16:00,
2013-08-05 00:21:00,55.8,50.7,30.01,North,0,0.2,0.4,83,0.00,,,0.00,WUHU216HW,2013-08-05 07:21:00,
2013-08-05 00:26:00,55.8,50.7,30.00,North,0,0.0,0.4,83,0.00,,,0.00,WUHU216HW,2013-08-05 07:26:00,
2013-08-05 00:31:00,55.8,50.7,30.01,North,0,0.2,0.4,83,0.00,,,0.00,WUHU216HW,2013-08-05 07:31:00,
2013-08-05 00:36:00,55.6,50.5,30.00,East,90,0.4,0.7,83,0.00,,,0.00,WUHU216HW,2013-08-05 07:36:00,
2013-08-05 00:41:00,55.4,50.3,30.00,ESE,113,0.4,0.7,83,0.00,,,0.00,WUHU216HW,2013-08-05 07:41:00,
2013-08-05 00:46:00,55.3,50.5,29.99,SSE,158,0.4,0.7,84,0.00,,,0.00,WUHU216HW,2013-08-05 07:46:00,
2013-08-05 00:52:00,55.1,50.3,30.00,NNE,23,0.4,0.4,84,0.00,,,0.00,WUHU216HW,2013-08-05 07:52:00,
2013-08-05 00:57:00,55.1,50.3,29.99,ENE,68,0.0,0.4,84,0.00,,,0.00,WUHU216HW,2013-08-05 07:57:00,
2013-08-05 01:02:00,55.1,50.3,30.00,WSW,248,0.2,1.8,84,0.00,,,0.00,WUHU216HW,2013-08-05 08:02:00,
2013-08-05 01:07:00,55.3,50.5,30.00,NNE,23,1.1,1.8,84,0.00,,,0.00,WUHU216HW,2013-08-05 08:07:00,
2013-08-05 01:12:00,55.1,50.3,30.00,East,90,0.4,1.1,84,0.00,,,0.00,WUHU216HW,2013-08-05 08:12:00,
2013-08-05 01:17:00,55.1,50.3,30.00,NW,315,0.4,0.4,84,0.00,,,0.00,WUHU216HW,2013-08-05 08:17:00,
2013-08-05 01:22:00,55.1,50.3,30.01,East,90,0.0,0.9,84,0.00,,,0.00,WUHU216HW,2013-08-05 08:22:00,
2013-08-05 01:27:00,55.1,50.6,29.99,ENE,68,0.4,0.9,85,0.00,,,0.00,WUHU216HW,2013-08-05 08:27:00,
2013-08-05 01:32:00,54.9,50.1,30.00,SE,135,1.1,1.1,84,0.00,,,0.00,WUHU216HW,2013-08-05 08:32:00,
2013-08-05 01:37:00,54.9,50.1,29.99,East,90,0.0,1.1,84,0.00,,,0.00,WUHU216HW,2013-08-05 08:37:00,
2013-08-05 01:42:00,54.7,50.2,29.98,NE,45,0.7,0.9,85,0.00,,,0.00,WUHU216HW,2013-08-05 08:42:00,
2013-08-05 01:48:00,54.5,50.1,29.99,ENE,68,0.4,0.9,85,0.00,,,0.00,WUHU216HW,2013-08-05 08:48:00,
2013-08-05 01:53:00,54.5,50.1,29.99,East,90,0.0,0.9,85,0.00,,,0.00,WUHU216HW,2013-08-05 08:53:00,
2013-08-05 01:58:00,54.5,50.1,29.98,ESE,113,0.7,1.1,85,0.00,,,0.00,WUHU216HW,2013-08-05 08:58:00,
2013-08-05 02:03:00,54.4,50.0,29.99,ENE,68,0.4,1.1,85,0.00,,,0.00,WUHU216HW,2013-08-05 09:03:00,
2013-08-05 02:08:00,54.4,50.2,29.99,East,90,0.2,0.7,86,0.00,,,0.00,WUHU216HW,2013-08-05 09:08:00,
2013-08-05 02:13:00,54.2,49.8,29.99,East,90,1.1,1.1,85,0.00,,,0.00,WUHU216HW,2013-08-05 09:13:00,
2013-08-05 02:19:00,54.2,49.8,29.99,East,90,0.2,1.1,85,0.00,,,0.00,WUHU216HW,2013-08-05 09:19:00,
2013-08-05 02:24:00,54.2,49.8,29.99,East,90,0.4,0.4,85,0.00,,,0.00,WUHU216HW,2013-08-05 09:24:00,
2013-08-05 02:29:00,54.2,50.0,29.98,East,90,0.4,0.4,86,0.00,,,0.00,WUHU216HW,2013-08-05 09:29:00,
2013-08-05 02:34:00,54.2,50.0,29.99,NNE,23,0.9,0.9,86,0.00,,,0.00,WUHU216HW,2013-08-05 09:34:00,
2013-08-05 02:39:00,54.2,50.0,29.98,North,0,0.4,0.9,86,0.00,,,0.00,WUHU216HW,2013-08-05 09:39:00,
2013-08-05 02:44:00,54.2,50.0,29.98,ENE,68,0.0,0.4,86,0.00,,,0.00,WUHU216HW,2013-08-05 09:44:00,
2013-08-05 02:49:00,54.2,50.0,29.99,ENE,68,0.4,0.4,86,0.00,,,0.00,WUHU216HW,2013-08-05 09:49:00,
2013-08-05 02:54:00,54.2,50.0,29.97,ENE,68,0.7,0.7,86,0.00,,,0.00,WUHU216HW,2013-08-05 09:54:00,
2013-08-05 03:00:00,54.0,49.9,29.98,ENE,68,0.0,0.7,86,0.00,,,0.00,WUHU216HW,2013-08-05 10:00:00,
2013-08-05 03:05:00,54.0,49.9,29.99,ENE,68,0.4,0.4,86,0.00,,,0.00,WUHU216HW,2013-08-05 10:05:00,
2013-08-05 03:10:00,54.0,49.9,29.97,NNE,23,0.0,0.4,86,0.00,,,0.00,WUHU216HW,2013-08-05 10:10:00,
2013-08-05 03:15:00,54.0,49.9,29.98,NNE,23,0.0,0.4,86,0.00,,,0.00,WUHU216HW,2013-08-05 10:15:00,
2013-08-05 03:20:00,53.8,50.1,29.98,ENE,68,0.0,0.7,87,0.00,,,0.00,WUHU216HW,2013-08-05 10:20:00,
2013-08-05 03:26:00,54.0,50.2,29.98,ENE,68,0.4,0.7,87,0.00,,,0.00,WUHU216HW,2013-08-05 10:26:00,
2013-08-05 03:31:00,54.0,50.2,29.99,ENE,68,1.3,1.3,87,0.00,,,0.00,WUHU216HW,2013-08-05 10:31:00,
2013-08-05 03:36:00,53.8,50.3,29.98,West,270,0.4,1.3,88,0.00,,,0.00,WUHU216HW,2013-08-05 10:36:00,
2013-08-05 03:42:00,53.8,50.3,29.98,East,90,0.4,0.4,88,0.00,,,0.00,WUHU216HW,2013-08-05 10:42:00,
2013-08-05 03:47:00,53.6,50.1,29.97,ESE,113,0.2,1.1,88,0.00,,,0.00,WUHU216HW,2013-08-05 10:47:00,
2013-08-05 03:52:00,53.8,50.3,29.98,NNE,23,0.0,1.1,88,0.00,,,0.00,WUHU216HW,2013-08-05 10:52:00,
2013-08-05 03:57:00,53.6,50.1,29.97,ESE,113,0.0,1.8,88,0.00,,,0.00,WUHU216HW,2013-08-05 10:57:00,
2013-08-05 04:02:00,53.8,50.3,29.97,East,90,0.4,1.8,88,0.00,,,0.00,WUHU216HW,2013-08-05 11:02:00,
2013-08-05 04:07:00,53.8,50.3,29.97,NE,45,0.7,1.1,88,0.00,,,0.00,WUHU216HW,2013-08-05 11:07:00,
2013-08-05 04:12:00,53.6,50.5,29.98,NE,45,0.4,0.9,89,0.00,,,0.00,WUHU216HW,2013-08-05 11:12:00,
2013-08-05 04:18:00,53.6,50.5,29.98,North,0,0.0,0.9,89,0.00,,,0.00,WUHU216HW,2013-08-05 11:18:00,
2013-08-05 04:22:00,53.6,50.5,29.97,NNE,23,1.6,1.6,89,0.00,,,0.00,WUHU216HW,2013-08-05 11:22:00,
2013-08-05 04:28:00,53.5,50.3,29.97,ENE,68,0.2,1.6,89,0.00,,,0.00,WUHU216HW,2013-08-05 11:28:00,
2013-08-05 04:33:00,53.5,50.3,29.97,NE,45,0.2,0.4,89,0.00,,,0.00,WUHU216HW,2013-08-05 11:33:00,
2013-08-05 04:38:00,53.5,50.3,29.97,ENE,68,0.7,0.7,89,0.00,,,0.00,WUHU216HW,2013-08-05 11:38:00,
2013-08-05 04:43:00,53.5,50.3,29.99,ENE,68,0.0,0.7,89,0.00,,,0.00,WUHU216HW,2013-08-05 11:43:00,
2013-08-05 04:48:00,53.3,50.1,29.97,ENE,68,0.2,0.9,89,0.00,,,0.00,WUHU216HW,2013-08-05 11:48:00,
2013-08-05 04:54:00,53.3,50.1,29.98,North,0,0.4,1.1,89,0.00,,,0.00,WUHU216HW,2013-08-05 11:54:00,
2013-08-05 04:59:00,53.1,50.0,29.97,NNW,338,0.0,1.1,89,0.00,,,0.00,WUHU216HW,2013-08-05 11:59:00,
2013-08-05 05:04:00,53.3,50.1,29.97,ENE,68,0.4,0.4,89,0.00,,,0.00,WUHU216HW,2013-08-05 12:04:00,
2013-08-05 05:09:00,53.3,50.1,29.97,ENE,68,0.0,0.4,89,0.00,,,0.00,WUHU216HW,2013-08-05 12:09:00,
2013-08-05 05:15:00,53.3,50.1,29.97,ENE,68,0.0,0.2,89,0.00,,,0.00,WUHU216HW,2013-08-05 12:15:00,
2013-08-05 05:20:00,53.5,50.3,29.98,ENE,68,0.0,0.2,89,0.00,,,0.00,WUHU216HW,2013-08-05 12:20:00,
2013-08-05 05:25:00,53.5,50.3,29.98,ENE,68,0.0,0.2,89,0.00,,,0.00,WUHU216HW,2013-08-05 12:25:00,
2013-08-05 05:30:00,53.3,50.1,29.98,West,270,0.4,1.1,89,0.00,,,0.00,WUHU216HW,2013-08-05 12:30:00,
2013-08-05 05:36:00,53.3,50.1,29.97,WSW,248,0.0,1.1,89,0.00,,,0.00,WUHU216HW,2013-08-05 12:36:00,
2013-08-05 05:41:00,53.3,49.8,29.98,SE,135,0.7,0.9,88,0.00,,,0.00,WUHU216HW,2013-08-05 12:41:00,
2013-08-05 05:46:00,53.5,50.0,29.98,SE,135,0.0,0.9,88,0.00,,,0.00,WUHU216HW,2013-08-05 12:46:00,
2013-08-05 05:51:00,53.5,50.0,29.98,SE,135,0.0,0.4,88,0.00,,,0.00,WUHU216HW,2013-08-05 12:51:00,
2013-08-05 05:56:00,53.5,50.0,29.99,SE,135,0.0,0.4,88,0.00,,,0.00,WUHU216HW,2013-08-05 12:56:00,
2013-08-05 06:02:00,53.6,50.1,29.99,SE,135,0.4,0.7,88,0.00,,,0.00,WUHU216HW,2013-08-05 13:02:00,
2013-08-05 06:07:00,53.6,50.1,29.99,SE,135,0.9,0.9,88,0.00,,,0.00,WUHU216HW,2013-08-05 13:07:00,
2013-08-05 06:12:00,53.6,50.1,29.98,SE,135,0.4,0.9,88,0.00,,,0.00,WUHU216HW,2013-08-05 13:12:00,
2013-08-05 06:17:00,53.6,50.1,29.99,SE,135,0.2,0.7,88,0.00,,,0.00,WUHU216HW,2013-08-05 13:17:00,
2013-08-05 06:22:00,53.6,50.1,29.99,SE,135,0.4,0.7,88,0.00,,,0.00,WUHU216HW,2013-08-05 13:22:00,
2013-08-05 06:27:00,53.6,49.9,30.00,SE,135,0.4,0.7,87,0.00,,,0.00,WUHU216HW,2013-08-05 13:27:00,
2013-08-05 06:32:00,53.8,50.1,29.99,SE,135,0.2,0.7,87,0.00,,,0.00,WUHU216HW,2013-08-05 13:32:00,
2013-08-05 06:38:00,53.6,49.9,29.99,SE,135,0.4,0.7,87,0.00,,,0.00,WUHU216HW,2013-08-05 13:38:00,
2013-08-05 06:43:00,53.8,50.1,29.99,SE,135,0.0,0.4,87,0.00,,,0.00,WUHU216HW,2013-08-05 13:43:00,
2013-08-05 06:48:00,54.0,50.2,29.99,SE,135,0.0,0.4,87,0.00,,,0.00,WUHU216HW,2013-08-05 13:48:00,
2013-08-05 06:53:00,54.0,50.2,29.99,WSW,248,0.9,0.9,87,0.00,,,0.00,WUHU216HW,2013-08-05 13:53:00,
2013-08-05 06:58:00,54.0,50.2,30.00,WSW,248,0.4,0.9,87,0.00,,,0.00,WUHU216HW,2013-08-05 13:58:00,
2013-08-05 07:03:00,54.0,50.2,29.99,SW,225,0.0,0.9,87,0.00,,,0.00,WUHU216HW,2013-08-05 14:03:00,
2013-08-05 07:08:00,53.8,50.3,29.99,SW,225,0.2,0.7,88,0.00,,,0.00,WUHU216HW,2013-08-05 14:08:00,
2013-08-05 07:13:00,53.8,50.1,29.99,WNW,293,0.0,1.1,87,0.00,,,0.00,WUHU216HW,2013-08-05 14:13:00,
2013-08-05 07:18:00,53.8,50.3,30.00,North,0,0.7,1.1,88,0.00,,,0.00,WUHU216HW,2013-08-05 14:18:00,
2013-08-05 07:24:00,54.0,50.5,30.00,SW,225,0.0,0.7,88,0.00,,,0.00,WUHU216HW,2013-08-05 14:24:00,
2013-08-05 07:28:00,54.0,50.5,30.00,NE,45,0.4,0.4,88,0.00,,,0.00,WUHU216HW,2013-08-05 14:28:00,
2013-08-05 07:34:00,54.0,50.9,30.00,NNE,23,1.6,1.6,89,0.00,,,0.00,WUHU216HW,2013-08-05 14:34:00,
2013-08-05 07:39:00,54.0,50.9,30.01,NE,45,0.4,2.5,89,0.00,,,0.00,WUHU216HW,2013-08-05 14:39:00,
2013-08-05 07:44:00,54.2,51.0,30.00,NE,45,0.0,2.5,89,0.00,,,0.00,WUHU216HW,2013-08-05 14:44:00,
2013-08-05 07:49:00,54.2,51.0,30.00,North,0,0.7,1.3,89,0.00,,,0.00,WUHU216HW,2013-08-05 14:49:00,
2013-08-05 07:54:00,53.8,50.7,30.00,ENE,68,0.0,1.3,89,0.00,,,0.00,WUHU216HW,2013-08-05 14:54:00,
2013-08-05 07:59:00,53.8,50.7,30.01,ENE,68,0.0,0.9,89,0.00,,,0.00,WUHU216HW,2013-08-05 14:59:00,
2013-08-05 08:05:00,53.8,50.7,30.00,NE,45,0.4,0.4,89,0.00,,,0.00,WUHU216HW,2013-08-05 15:05:00,
2013-08-05 08:10:00,54.0,50.9,30.03,NNE,23,0.4,0.9,89,0.00,,,0.00,WUHU216HW,2013-08-05 15:10:00,
2013-08-05 08:15:00,54.2,51.0,30.03,North,0,1.1,1.1,89,0.00,,,0.00,WUHU216HW,2013-08-05 15:15:00,
2013-08-05 08:20:00,54.2,51.0,30.03,East,90,1.3,1.8,89,0.00,,,0.00,WUHU216HW,2013-08-05 15:20:00,
2013-08-05 08:25:00,54.2,51.0,30.04,ENE,68,0.4,1.8,89,0.00,,,0.00,WUHU216HW,2013-08-05 15:25:00,
2013-08-05 08:30:00,54.2,51.0,30.02,ENE,68,0.4,1.1,89,0.00,,,0.00,WUHU216HW,2013-08-05 15:30:00,
2013-08-05 08:35:00,54.4,51.2,30.03,NNE,23,0.2,1.1,89,0.00,,,0.00,WUHU216HW,2013-08-05 15:35:00,
2013-08-05 08:40:00,54.4,51.5,30.03,North,0,0.2,1.1,90,0.00,,,0.00,WUHU216HW,2013-08-05 15:40:00,
2013-08-05 08:45:00,54.7,51.8,30.04,NNE,23,0.4,1.8,90,0.00,,,0.00,WUHU216HW,2013-08-05 15:45:00,
2013-08-05 08:51:00,54.7,51.8,30.03,ENE,68,0.9,1.8,90,0.00,,,0.00,WUHU216HW,2013-08-05 15:51:00,
2013-08-05 08:56:00,54.9,52.0,30.03,ENE,68,0.0,1.1,90,0.00,,,0.00,WUHU216HW,2013-08-05 15:56:00,
2013-08-05 09:00:00,55.1,52.2,30.04,North,0,0.7,1.6,90,0.00,,,0.00,WUHU216HW,2013-08-05 16:00:00,
2013-08-05 09:06:00,55.1,51.8,30.04,NNE,23,1.1,1.6,89,0.00,,,0.00,WUHU216HW,2013-08-05 16:06:00,
2013-08-05 09:11:00,55.3,52.0,30.03,NNE,23,0.0,1.1,89,0.00,,,0.00,WUHU216HW,2013-08-05 16:11:00,
2013-08-05 09:17:00,55.4,52.2,30.03,ENE,68,0.0,0.4,89,0.00,,,0.00,WUHU216HW,2013-08-05 16:17:00,
2013-08-05 09:22:00,55.8,52.6,30.04,NNE,23,1.1,1.3,89,0.00,,,0.00,WUHU216HW,2013-08-05 16:22:00,
2013-08-05 09:27:00,56.2,52.9,30.04,NNE,23,0.2,1.3,89,0.00,,,0.00,WUHU216HW,2013-08-05 16:27:00,
2013-08-05 09:32:00,56.5,53.3,30.03,North,0,1.6,2.0,89,0.00,,,0.00,WUHU216HW,2013-08-05 16:32:00,
2013-08-05 09:37:00,56.5,53.3,30.03,NNW,338,0.9,2.9,89,0.00,,,0.00,WUHU216HW,2013-08-05 16:37:00,
2013-08-05 09:42:00,56.7,53.5,30.03,NNE,23,1.3,2.9,89,0.00,,,0.00,WUHU216HW,2013-08-05 16:42:00,
2013-08-05 09:47:00,56.9,53.4,30.02,North,0,0.2,4.0,88,0.00,,,0.00,WUHU216HW,2013-08-05 16:47:00,
2013-08-05 09:53:00,56.7,53.2,30.03,ENE,68,0.4,4.0,88,0.00,,,0.00,WUHU216HW,2013-08-05 16:53:00,
2013-08-05 09:58:00,56.7,53.5,30.04,NNW,338,0.0,2.5,89,0.00,,,0.00,WUHU216HW,2013-08-05 16:58:00,
2013-08-05 10:03:00,57.1,53.6,30.03,NNE,23,4.3,4.3,88,0.00,,,0.00,WUHU216HW,2013-08-05 17:03:00,
2013-08-05 10:08:00,57.1,53.6,30.04,NW,315,0.0,4.3,88,0.00,,,0.00,WUHU216HW,2013-08-05 17:08:00,
2013-08-05 10:13:00,57.2,53.7,30.03,NE,45,1.6,3.1,88,0.00,,,0.00,WUHU216HW,2013-08-05 17:13:00,
2013-08-05 10:17:00,57.2,53.7,30.04,WNW,293,0.9,3.1,88,0.00,,,0.00,WUHU216HW,2013-08-05 17:17:00,
2013-08-05 10:23:00,57.6,54.1,30.04,North,0,4.7,4.7,88,0.00,,,0.00,WUHU216HW,2013-08-05 17:23:00,
2013-08-05 10:28:00,58.1,54.3,30.03,North,0,2.2,4.7,87,0.00,,,0.00,WUHU216HW,2013-08-05 17:28:00,
2013-08-05 10:33:00,58.3,54.5,30.04,NNE,23,1.6,2.9,87,0.00,,,0.00,WUHU216HW,2013-08-05 17:33:00,
2013-08-05 10:38:00,58.9,55.0,30.04,NE,45,0.2,3.6,87,0.00,,,0.00,WUHU216HW,2013-08-05 17:38:00,
2013-08-05 10:43:00,59.8,55.6,30.04,North,0,1.8,4.3,86,0.00,,,0.00,WUHU216HW,2013-08-05 17:43:00,
2013-08-05 10:48:00,60.3,55.2,30.04,North,0,1.6,4.3,83,0.00,,,0.00,WUHU216HW,2013-08-05 17:48:00,
2013-08-05 10:53:00,60.5,55.0,30.04,North,0,0.7,5.4,82,0.00,,,0.00,WUHU216HW,2013-08-05 17:53:00,
2013-08-05 10:59:00,61.0,55.5,30.05,NNE,23,1.1,5.4,82,0.00,,,0.00,WUHU216HW,2013-08-05 17:59:00,
2013-08-05 11:04:00,61.6,55.4,30.04,NNW,338,1.8,4.7,80,0.00,,,0.00,WUHU216HW,2013-08-05 18:04:00,
2013-08-05 11:09:00,62.3,55.6,30.04,WSW,248,0.7,3.1,79,0.00,,,0.00,WUHU216HW,2013-08-05 18:09:00,
2013-08-05 11:14:00,63.0,55.6,30.04,North,0,1.1,2.5,77,0.00,,,0.00,WUHU216HW,2013-08-05 18:14:00,
2013-08-05 11:20:00,63.5,56.2,30.04,NNE,23,2.2,2.2,77,0.00,,,0.00,WUHU216HW,2013-08-05 18:20:00,
2013-08-05 11:25:00,64.1,56.3,30.05,ENE,68,2.9,4.3,76,0.00,,,0.00,WUHU216HW,2013-08-05 18:25:00,
2013-08-05 11:30:00,64.4,56.0,30.04,NNE,23,1.3,4.3,74,0.00,,,0.00,WUHU216HW,2013-08-05 18:30:00,
2013-08-05 11:35:00,64.8,56.4,30.04,East,90,2.7,4.0,74,0.00,,,0.00,WUHU216HW,2013-08-05 18:35:00,
2013-08-05 11:40:00,65.2,56.3,30.03,NW,315,0.4,4.0,73,0.00,,,0.00,WUHU216HW,2013-08-05 18:40:00,
2013-08-05 11:45:00,65.5,55.5,30.04,NNE,23,3.1,6.5,70,0.00,,,0.00,WUHU216HW,2013-08-05 18:45:00,
2013-08-05 11:51:00,65.5,56.3,30.04,ENE,68,2.0,4.0,72,0.00,,,0.00,WUHU216HW,2013-08-05 18:51:00,
2013-08-05 11:56:00,66.2,56.2,30.04,NW,315,0.9,5.1,70,0.00,,,0.00,WUHU216HW,2013-08-05 18:56:00,
2013-08-05 12:01:00,66.6,56.5,30.04,NNE,23,0.9,5.1,70,0.00,,,0.00,WUHU216HW,2013-08-05 19:01:00,
2013-08-05 12:06:00,67.5,56.6,30.04,NE,45,2.7,4.0,68,0.00,,,0.00,WUHU216HW,2013-08-05 19:06:00,
2013-08-05 12:11:00,67.7,55.9,30.02,NNE,23,2.7,4.3,66,0.00,,,0.00,WUHU216HW,2013-08-05 19:11:00,
2013-08-05 12:16:00,67.9,56.5,30.00,NW,315,0.4,4.3,67,0.00,,,0.00,WUHU216HW,2013-08-05 19:16:00,
2013-08-05 12:21:00,68.2,56.0,30.01,NW,315,1.1,3.8,65,0.00,,,0.00,WUHU216HW,2013-08-05 19:21:00,
2013-08-05 12:26:00,68.6,55.9,30.01,ENE,68,2.7,5.8,64,0.00,,,0.00,WUHU216HW,2013-08-05 19:26:00,
2013-08-05 12:32:00,68.4,55.3,30.00,North,0,5.8,5.8,63,0.00,,,0.00,WUHU216HW,2013-08-05 19:32:00,
2013-08-05 12:37:00,68.0,55.4,29.99,NNE,23,6.5,6.5,64,0.00,,,0.00,WUHU216HW,2013-08-05 19:37:00,
2013-08-05 12:42:00,68.0,55.4,30.00,NNE,23,4.7,6.5,64,0.00,,,0.00,WUHU216HW,2013-08-05 19:42:00,
2013-08-05 12:47:00,68.0,55.4,29.99,SE,135,2.5,6.9,64,0.00,,,0.00,WUHU216HW,2013-08-05 19:47:00,
2013-08-05 12:52:00,68.4,55.7,30.00,NNW,338,4.3,6.9,64,0.00,,,0.00,WUHU216HW,2013-08-05 19:52:00,
2013-08-05 12:57:00,68.8,55.6,29.99,NNE,23,3.8,5.1,63,0.00,,,0.00,WUHU216HW,2013-08-05 19:57:00,
2013-08-05 13:03:00,68.9,55.8,29.99,NE,45,3.6,6.0,63,0.00,,,0.00,WUHU216HW,2013-08-05 20:03:00,
2013-08-05 13:08:00,69.3,56.2,29.99,NE,45,3.1,6.0,63,0.00,,,0.00,WUHU216HW,2013-08-05 20:08:00,
2013-08-05 13:13:00,69.5,56.4,29.99,South,180,2.0,6.5,63,0.00,,,0.00,WUHU216HW,2013-08-05 20:13:00,
2013-08-05 13:18:00,70.2,56.6,30.01,North,0,4.0,6.5,62,0.00,,,0.00,WUHU216HW,2013-08-05 20:18:00,
2013-08-05 13:23:00,70.4,56.3,29.99,ENE,68,2.0,4.0,61,0.00,,,0.00,WUHU216HW,2013-08-05 20:23:00,
2013-08-05 13:28:00,70.4,56.8,29.99,North,0,2.2,4.5,62,0.00,,,0.00,WUHU216HW,2013-08-05 20:28:00,
2013-08-05 13:33:00,70.7,56.7,29.99,North,0,2.0,4.5,61,0.00,,,0.00,WUHU216HW,2013-08-05 20:33:00,
2013-08-05 13:38:00,70.9,56.9,29.99,North,0,2.5,2.7,61,0.00,,,0.00,WUHU216HW,2013-08-05 20:38:00,
2013-08-05 13:43:00,71.3,57.2,29.99,North,0,4.7,4.7,61,0.00,,,0.00,WUHU216HW,2013-08-05 20:43:00,
2013-08-05 13:49:00,71.5,57.3,30.00,NNW,338,0.7,4.7,61,0.00,,,0.00,WUHU216HW,2013-08-05 20:49:00,
2013-08-05 13:54:00,71.5,57.3,30.00,NNE,23,1.3,3.4,61,0.00,,,0.00,WUHU216HW,2013-08-05 20:54:00,
2013-08-05 13:59:00,71.3,56.7,30.00,NNE,23,1.8,5.4,60,0.00,,,0.00,WUHU216HW,2013-08-05 20:59:00,
2013-08-05 14:04:00,71.3,57.2,30.01,NNE,23,2.5,5.4,61,0.00,,,0.00,WUHU216HW,2013-08-05 21:04:00,
2013-08-05 14:09:00,71.5,56.9,30.00,NE,45,2.2,4.7,60,0.00,,,0.00,WUHU216HW,2013-08-05 21:09:00,
2013-08-05 14:14:00,71.3,56.7,30.00,North,0,1.3,4.7,60,0.00,,,0.00,WUHU216HW,2013-08-05 21:14:00,
2013-08-05 14:20:00,70.7,56.3,29.99,North,0,1.6,6.0,60,0.00,,,0.00,WUHU216HW,2013-08-05 21:20:00,
2013-08-05 14:25:00,70.4,56.3,30.01,NNE,23,1.1,6.0,61,0.00,,,0.00,WUHU216HW,2013-08-05 21:25:00,
2013-08-05 14:30:00,70.7,56.7,30.01,NE,45,2.0,2.5,61,0.00,,,0.00,WUHU216HW,2013-08-05 21:30:00,
2013-08-05 14:37:00,71.3,57.2,30.00,NNE,23,4.3,4.3,61,0.00,,,0.00,WUHU216HW,2013-08-05 21:37:00,
2013-08-05 14:42:00,71.3,57.2,29.99,North,0,1.8,4.3,61,0.00,,,0.00,WUHU216HW,2013-08-05 21:42:00,
2013-08-05 14:47:00,71.5,56.9,29.99,West,270,1.3,3.1,60,0.00,,,0.00,WUHU216HW,2013-08-05 21:47:00,
2013-08-05 14:52:00,71.5,56.9,29.99,North,0,1.6,3.1,60,0.00,,,0.00,WUHU216HW,2013-08-05 21:52:00,
2013-08-05 14:57:00,71.6,57.5,29.99,NNW,338,0.9,2.7,61,0.00,,,0.00,WUHU216HW,2013-08-05 21:57:00,
2013-08-05 15:02:00,72.0,57.4,29.99,ENE,68,1.3,3.4,60,0.00,,,0.00,WUHU216HW,2013-08-05 22:02:00,
2013-08-05 15:07:00,71.8,56.3,29.99,NNE,23,2.2,3.4,58,0.00,,,0.00,WUHU216HW,2013-08-05 22:07:00,
2013-08-05 15:13:00,71.3,56.3,29.99,NW,315,0.9,3.4,59,0.00,,,0.00,WUHU216HW,2013-08-05 22:13:00,
2013-08-05 15:18:00,70.9,55.9,29.98,NNE,23,1.1,4.0,59,0.00,,,0.00,WUHU216HW,2013-08-05 22:18:00,
2013-08-05 15:23:00,70.6,55.6,29.99,East,90,0.9,3.4,59,0.00,,,0.00,WUHU216HW,2013-08-05 22:23:00,
2013-08-05 15:28:00,70.2,55.3,30.00,NE,45,5.1,5.1,59,0.00,,,0.00,WUHU216HW,2013-08-05 22:28:00,
2013-08-05 15:34:00,69.5,55.1,29.99,North,0,6.9,6.9,60,0.00,,,0.00,WUHU216HW,2013-08-05 22:34:00,
2013-08-05 15:39:00,68.4,54.9,29.98,North,0,5.6,7.8,62,0.00,,,0.00,WUHU216HW,2013-08-05 22:39:00,
2013-08-05 15:44:00,67.7,55.0,30.00,ENE,68,1.3,8.1,64,0.00,,,0.00,WUHU216HW,2013-08-05 22:44:00,
2013-08-05 15:49:00,67.3,54.7,29.99,NE,45,6.9,8.9,64,0.00,,,0.00,WUHU216HW,2013-08-05 22:49:00,
2013-08-05 15:54:00,66.8,54.6,29.99,NNW,338,3.4,8.9,65,0.00,,,0.00,WUHU216HW,2013-08-05 22:54:00,
2013-08-05 15:59:00,66.4,54.3,29.99,NNE,23,1.8,8.1,65,0.00,,,0.00,WUHU216HW,2013-08-05 22:59:00,
2013-08-05 16:05:00,66.4,54.3,29.99,NNE,23,6.7,6.7,65,0.00,,,0.00,WUHU216HW,2013-08-05 23:05:00,
2013-08-05 16:10:00,66.6,54.5,29.98,North,0,4.7,6.7,65,0.00,,,0.00,WUHU216HW,2013-08-05 23:10:00,
2013-08-05 16:15:00,66.6,54.5,29.98,North,0,6.0,6.7,65,0.00,,,0.00,WUHU216HW,2013-08-05 23:15:00,
2013-08-05 16:20:00,66.1,53.9,29.98,North,0,5.8,7.2,65,0.00,,,0.00,WUHU216HW,2013-08-05 23:20:00,
2013-08-05 16:25:00,65.7,54.0,29.98,NNE,23,2.5,7.2,66,0.00,,,0.00,WUHU216HW,2013-08-05 23:25:00,
2013-08-05 16:30:00,65.7,54.5,29.98,North,0,3.8,5.6,67,0.00,,,0.00,WUHU216HW,2013-08-05 23:30:00,
2013-08-05 16:36:00,65.9,54.5,29.98,WSW,248,2.2,5.1,67,0.00,,,0.00,WUHU216HW,2013-08-05 23:36:00,
2013-08-05 16:41:00,65.9,54.2,29.98,NE,45,2.0,5.4,66,0.00,,,0.00,WUHU216HW,2013-08-05 23:41:00,
2013-08-05 16:46:00,65.9,54.2,29.97,NNE,23,3.1,6.7,66,0.00,,,0.00,WUHU216HW,2013-08-05 23:46:00,
2013-08-05 16:51:00,66.1,54.4,29.98,NE,45,2.2,6.7,66,0.00,,,0.00,WUHU216HW,2013-08-05 23:51:00,
2013-08-05 16:56:00,66.2,54.6,29.99,ESE,113,1.3,3.1,66,0.00,,,0.00,WUHU216HW,2013-08-05 23:56:00,
2013-08-05 17:01:00,66.6,54.8,29.99,NNE,23,0.4,2.5,66,0.00,,,0.00,WUHU216HW,2013-08-06 00:01:00,
2013-08-05 17:07:00,66.4,54.7,29.99,NNW,338,1.1,4.0,66,0.00,,,0.00,WUHU216HW,2013-08-06 00:07:00,
2013-08-05 17:12:00,66.4,54.3,29.97,NE,45,1.8,4.0,65,0.00,,,0.00,WUHU216HW,2013-08-06 00:12:00,
2013-08-05 17:17:00,66.2,54.1,29.98,NNW,338,4.3,4.3,65,0.00,,,0.00,WUHU216HW,2013-08-06 00:17:00,
2013-08-05 17:23:00,66.1,54.4,29.97,NNE,23,1.1,6.0,66,0.00,,,0.00,WUHU216HW,2013-08-06 00:23:00,
2013-08-05 17:28:00,65.7,54.0,29.98,NE,45,4.0,6.0,66,0.00,,,0.00,WUHU216HW,2013-08-06 00:28:00,
2013-08-05 17:33:00,65.2,53.9,29.97,NE,45,2.5,4.7,67,0.00,,,0.00,WUHU216HW,2013-08-06 00:33:00,
2013-08-05 17:38:00,64.8,54.0,30.01,NNE,23,2.7,4.0,68,0.00,,,0.00,WUHU216HW,2013-08-06 00:38:00,
2013-08-05 17:43:00,64.4,54.1,30.01,East,90,1.8,3.4,69,0.00,,,0.00,WUHU216HW,2013-08-06 00:43:00,
2013-08-05 17:48:00,64.6,54.3,30.01,NW,315,0.4,2.5,69,0.00,,,0.00,WUHU216HW,2013-08-06 00:48:00,
2013-08-05 17:53:00,64.6,54.3,30.01,NNE,23,3.8,3.8,69,0.00,,,0.00,WUHU216HW,2013-08-06 00:53:00,
2013-08-05 17:58:00,64.6,54.3,30.02,SW,225,0.4,3.8,69,0.00,,,0.00,WUHU216HW,2013-08-06 00:58:00,
2013-08-05 18:03:00,64.8,54.5,30.00,NNE,23,2.2,2.5,69,0.00,,,0.00,WUHU216HW,2013-08-06 01:03:00,
2013-08-05 18:08:00,65.2,54.7,30.01,ENE,68,0.0,2.2,69,0.00,,,0.00,WUHU216HW,2013-08-06 01:08:00,
2013-08-05 18:14:00,65.2,54.4,30.00,NNW,338,1.1,2.2,68,0.00,,,0.00,WUHU216HW,2013-08-06 01:14:00,
2013-08-05 18:19:00,65.5,54.6,30.01,SSW,203,1.1,1.3,68,0.00,,,0.00,WUHU216HW,2013-08-06 01:19:00,
2013-08-05 18:24:00,65.9,54.5,30.00,WNW,293,1.1,1.1,67,0.00,,,0.00,WUHU216HW,2013-08-06 01:24:00,
2013-08-05 18:29:00,65.7,54.5,30.00,WSW,248,1.1,2.0,67,0.00,,,0.00,WUHU216HW,2013-08-06 01:29:00,
2013-08-05 18:34:00,64.8,54.0,30.02,NNW,338,0.4,2.0,68,0.00,,,0.00,WUHU216HW,2013-08-06 01:34:00,
2013-08-05 18:39:00,64.6,54.3,30.00,NNE,23,0.4,1.3,69,0.00,,,0.00,WUHU216HW,2013-08-06 01:39:00,
2013-08-05 18:44:00,64.4,54.1,29.97,WSW,248,1.8,1.8,69,0.00,,,0.00,WUHU216HW,2013-08-06 01:44:00,
2013-08-05 18:49:00,64.3,53.9,29.99,West,270,0.9,1.8,69,0.00,,,0.00,WUHU216HW,2013-08-06 01:49:00,
2013-08-05 18:54:00,63.4,53.5,29.98,WNW,293,0.9,1.8,70,0.00,,,0.00,WUHU216HW,2013-08-06 01:54:00,
2013-08-05 18:59:00,62.8,53.6,29.97,West,270,0.4,1.1,72,0.00,,,0.00,WUHU216HW,2013-08-06 01:59:00,
2013-08-05 19:04:00,62.3,53.5,29.98,NW,315,0.7,0.9,73,0.00,,,0.00,WUHU216HW,2013-08-06 02:04:00,
2013-08-05 19:09:00,61.9,53.2,29.99,WSW,248,0.9,0.9,73,0.00,,,0.00,WUHU216HW,2013-08-06 02:09:00,
2013-08-05 19:14:00,61.7,53.0,29.98,NW,315,0.4,1.1,73,0.00,,,0.00,WUHU216HW,2013-08-06 02:14:00,
2013-08-05 19:19:00,61.6,52.8,29.97,WSW,248,0.7,1.1,73,0.00,,,0.00,WUHU216HW,2013-08-06 02:19:00,
2013-08-05 19:25:00,61.6,52.8,29.97,WSW,248,1.3,1.6,73,0.00,,,0.00,WUHU216HW,2013-08-06 02:25:00,
2013-08-05 19:30:00,61.6,52.8,29.98,West,270,0.4,1.6,73,0.00,,,0.00,WUHU216HW,2013-08-06 02:30:00,
2013-08-05 19:35:00,61.0,52.8,29.98,West,270,0.4,0.9,74,0.00,,,0.00,WUHU216HW,2013-08-06 02:35:00,
2013-08-05 19:40:00,60.5,52.2,29.97,SSW,203,0.4,1.1,74,0.00,,,0.00,WUHU216HW,2013-08-06 02:40:00,
2013-08-05 19:45:00,60.5,52.2,29.98,WSW,248,0.7,1.1,74,0.00,,,0.00,WUHU216HW,2013-08-06 02:45:00,
2013-08-05 19:50:00,60.5,52.2,29.98,SSW,203,0.7,0.7,74,0.00,,,0.00,WUHU216HW,2013-08-06 02:50:00,
2013-08-05 19:55:00,60.5,52.2,29.98,WSW,248,0.7,0.7,74,0.00,,,0.00,WUHU216HW,2013-08-06 02:55:00,
2013-08-05 20:01:00,60.5,52.2,29.97,West,270,0.0,1.8,74,0.00,,,0.00,WUHU216HW,2013-08-06 03:01:00,
2013-08-05 20:06:00,60.5,52.2,29.99,WSW,248,0.4,1.8,74,0.00,,,0.00,WUHU216HW,2013-08-06 03:06:00,
2013-08-05 20:11:00,60.5,52.2,29.98,WSW,248,0.2,0.4,74,0.00,,,0.00,WUHU216HW,2013-08-06 03:11:00,
2013-08-05 20:16:00,60.3,52.0,29.98,WSW,248,1.8,1.8,74,0.00,,,0.00,WUHU216HW,2013-08-06 03:16:00,
2013-08-05 20:21:00,60.1,52.2,29.99,WSW,248,0.4,1.8,75,0.00,,,0.00,WUHU216HW,2013-08-06 03:21:00,
2013-08-05 20:26:00,59.8,51.8,29.99,West,270,0.4,1.8,75,0.00,,,0.00,WUHU216HW,2013-08-06 03:26:00,
2013-08-05 20:32:00,59.4,51.8,29.99,NNW,338,0.7,0.9,76,0.00,,,0.00,WUHU216HW,2013-08-06 03:32:00,
2013-08-05 20:37:00,59.4,51.8,29.99,WNW,293,1.1,1.1,76,0.00,,,0.00,WUHU216HW,2013-08-06 03:37:00,
2013-08-05 20:42:00,59.4,51.8,29.98,ESE,113,0.2,1.1,76,0.00,,,0.00,WUHU216HW,2013-08-06 03:42:00,
2013-08-05 20:47:00,59.2,52.0,29.99,WSW,248,1.3,1.3,77,0.00,,,0.00,WUHU216HW,2013-08-06 03:47:00,
2013-08-05 20:52:00,59.0,51.8,29.98,East,90,0.4,1.3,77,0.00,,,0.00,WUHU216HW,2013-08-06 03:52:00,
2013-08-05 20:57:00,59.0,51.8,30.00,WSW,248,0.7,1.1,77,0.00,,,0.00,WUHU216HW,2013-08-06 03:57:00,
2013-08-05 21:01:00,58.9,52.0,30.00,WSW,248,1.1,1.1,78,0.00,,,0.00,WUHU216HW,2013-08-06 04:01:00,
2013-08-05 21:02:00,58.9,52.0,29.99,WSW,248,0.4,1.1,78,0.00,,,0.00,WUHU216HW,2013-08-06 04:02:00,
2013-08-05 21:07:00,58.9,52.0,29.99,West,270,0.4,1.1,78,0.00,,,0.00,WUHU216HW,2013-08-06 04:07:00,
2013-08-05 21:12:00,58.9,52.0,29.99,West,270,0.0,0.7,78,0.00,,,0.00,WUHU216HW,2013-08-06 04:12:00,
2013-08-05 21:17:00,58.9,52.0,29.99,West,270,0.0,0.4,78,0.00,,,0.00,WUHU216HW,2013-08-06 04:17:00,
2013-08-05 21:22:00,59.0,52.2,30.00,West,270,0.0,0.0,78,0.00,,,0.00,WUHU216HW,2013-08-06 04:22:00,
2013-08-05 21:27:00,58.9,52.0,29.99,SW,225,0.4,0.4,78,0.00,,,0.00,WUHU216HW,2013-08-06 04:27:00,
2013-08-05 21:32:00,58.9,52.0,30.00,NNE,23,0.0,1.1,78,0.00,,,0.00,WUHU216HW,2013-08-06 04:32:00,
2013-08-05 21:37:00,58.7,51.8,29.99,NNE,23,0.0,1.1,78,0.00,,,0.00,WUHU216HW,2013-08-06 04:37:00,
2013-08-05 21:42:00,58.7,51.8,29.99,NNE,23,0.2,0.4,78,0.00,,,0.00,WUHU216HW,2013-08-06 04:42:00,
2013-08-05 21:48:00,58.7,51.8,30.00,NE,45,0.9,0.9,78,0.00,,,0.00,WUHU216HW,2013-08-06 04:48:00,
2013-08-05 21:53:00,58.3,51.5,29.99,NNE,23,0.4,1.1,78,0.00,,,0.00,WUHU216HW,2013-08-06 04:53:00,
2013-08-05 21:58:00,58.1,51.7,29.99,NNW,338,0.0,1.1,79,0.00,,,0.00,WUHU216HW,2013-08-06 04:58:00,
2013-08-05 22:03:00,58.0,51.5,29.99,ENE,68,0.4,0.9,79,0.00,,,0.00,WUHU216HW,2013-08-06 05:03:00,
2013-08-05 22:08:00,58.0,51.5,29.99,NNE,23,0.4,0.9,79,0.00,,,0.00,WUHU216HW,2013-08-06 05:08:00,
2013-08-05 22:13:00,57.8,51.3,30.00,SE,135,0.2,0.4,79,0.00,,,0.00,WUHU216HW,2013-08-06 05:13:00,
2013-08-05 22:18:00,57.8,52.0,29.99,NNE,23,0.0,0.4,81,0.00,,,0.00,WUHU216HW,2013-08-06 05:18:00,
2013-08-05 22:23:00,57.6,51.5,29.99,SE,135,0.0,0.4,80,0.00,,,0.00,WUHU216HW,2013-08-06 05:23:00,
2013-08-05 22:28:00,57.4,51.3,29.98,WSW,248,0.4,0.9,80,0.00,,,0.00,WUHU216HW,2013-08-06 05:28:00,
2013-08-05 22:33:00,57.4,51.3,29.99,NNW,338,0.0,0.9,80,0.00,,,0.00,WUHU216HW,2013-08-06 05:33:00,
2013-08-05 22:39:00,57.4,51.3,29.99,NNW,338,0.2,0.4,80,0.00,,,0.00,WUHU216HW,2013-08-06 05:39:00,
2013-08-05 22:44:00,57.2,51.1,29.99,NNW,338,0.0,0.4,80,0.00,,,0.00,WUHU216HW,2013-08-06 05:44:00,
2013-08-05 22:49:00,57.2,51.5,29.98,North,0,0.0,0.4,81,0.00,,,0.00,WUHU216HW,2013-08-06 05:49:00,
2013-08-05 22:54:00,57.1,51.3,29.99,North,0,0.2,0.4,81,0.00,,,0.00,WUHU216HW,2013-08-06 05:54:00,
2013-08-05 22:59:00,57.1,51.3,29.98,East,90,0.4,1.1,81,0.00,,,0.00,WUHU216HW,2013-08-06 05:59:00,
2013-08-05 23:04:00,56.9,51.4,29.99,NE,45,0.7,1.1,82,0.00,,,0.00,WUHU216HW,2013-08-06 06:04:00,
2013-08-05 23:09:00,56.9,51.1,29.99,ENE,68,0.7,0.9,81,0.00,,,0.00,WUHU216HW,2013-08-06 06:09:00,
2013-08-05 23:14:00,56.9,51.4,29.99,ENE,68,0.4,0.9,82,0.00,,,0.00,WUHU216HW,2013-08-06 06:14:00,
2013-08-05 23:19:00,57.1,51.6,29.98,ENE,68,0.0,0.9,82,0.00,,,0.00,WUHU216HW,2013-08-06 06:19:00,
2013-08-05 23:24:00,57.1,51.3,29.99,ESE,113,0.0,0.7,81,0.00,,,0.00,WUHU216HW,2013-08-06 06:24:00,
2013-08-05 23:30:00,57.1,51.6,29.99,ESE,113,0.4,0.4,82,0.00,,,0.00,WUHU216HW,2013-08-06 06:30:00,
2013-08-05 23:35:00,57.1,51.6,29.99,NNE,23,0.9,0.9,82,0.00,,,0.00,WUHU216HW,2013-08-06 06:35:00,
2013-08-05 23:40:00,57.1,51.6,29.99,NNE,23,0.0,0.9,82,0.00,,,0.00,WUHU216HW,2013-08-06 06:40:00,
2013-08-05 23:45:00,56.9,51.4,29.99,NE,45,0.0,0.7,82,0.00,,,0.00,WUHU216HW,2013-08-06 06:45:00,
2013-08-05 23:50:00,56.9,51.4,29.99,North,0,0.0,0.7,82,0.00,,,0.00,WUHU216HW,2013-08-06 06:50:00,
2013-08-05 23:55:00,56.9,51.4,29.99,NNE,23,0.4,0.7,82,0.00,,,0.00,WUHU216HW,2013-08-06 06:55:00,